Regional Weather Roundup
Issued by NWS Wakefield, VA

Home | Current Version | Previous Version | Text Only | Print | Product List | Glossary Off
Versions: 1 2 3 4 5 6 7 8 9 10 11 12 13 14 15 16 17 18 19 20 21 22 23 24 25 26 27 28 29 30 31 32 33 34 35 36 37 38 39 40 41 42 43

000
ASUS41 KAKQ 270810
RWRAKQ

REGIONAL WEATHER ROUNDUP
NATIONAL WEATHER SERVICE WAKEFIELD VA
300 AM EST SAT DEC 27 2014

Note: "fair" indicates few or no clouds below 12,000 feet with no
significant weather and/or obstructions to visibility. * = Denotes
station may not report precipitation (e.g., rain,snow,etc.),
thunder or fog.

VAZ042-051-052>054-056-270900-
NORTHERN VIRGINIA

CITY           SKY/WX    TMP DP  RH WIND       PRES   REMARKS
WASH NATIONAL  FAIR      38  32  79 SW3       30.26S
DULLES         MOCLDY    28  26  92 CALM      30.24R
FORT BELVOIR   PTCLDY    30  28  95 W1        30.27R
QUANTICO       PTCLDY    32  29  88 NW8       30.28R
FREDERICKSBRG* PTCLDY    31  31 100 CALM      30.26R
STAFFORD*      PTCLDY    28  28 100 CALM      30.30R
WARRENTON      PTCLDY    28  28 100 CALM      30.24R
CULPEPER*      PTCLDY    28  27  93 CALM      30.25S
MANASSAS*      PTCLDY    27  27 100 CALM      30.26R
LEESBURG*      MOCLDY    32  32 100 NW3       30.26S
WINCHESTER     MOCLDY    39  27  60 CALM      30.23R
FRONT ROYAL*   PTSUNNY   32  28  86 CALM      30.22R
LURAY*         PTSUNNY   34  34 100 NW3       30.24R
$$

VAZ048-049-060>072-079>083-270900-
CENTRAL AND SOUTH CENTRAL VIRGINIA

CITY           SKY/WX    TMP DP  RH WIND       PRES   REMARKS
RICHMOND       PTCLDY    35  30  82 SE5       30.26F
CHESTERFIELD*  MOSUNNY   30  18  59 CALM      30.27F
PETERSBURG*    PTCLDY    30  30  99 CALM      30.28S
HANOVER        PTCLDY    30  29  96 CALM      30.27F FOG
TAPPAHANNOCK*  PTCLDY    31  28  87 S3        30.27F
QUINTON*       MOSUNNY   31  30  96 MISG      30.27S
CHARLOTTSVILLE MOCLDY    33  30  88 W5        30.23S
GORDONSVILLE*  PTSUNNY   30  29  96 CALM      30.24R
ORANGE*        MOCLDY    32  30  93 CALM      30.26R
LOUISA*        PTCLDY    32  30  93 CALM      30.24R
BUMPASS*       PTSUNNY   31  30  94 CALM      30.25S
FARMVILLE*     CLEAR     33  33 100 SW3       30.25R
CREWE*         SUNNY     34  33  94 CALM      30.25F
FORT PICKETT*  SUNNY     36  33  89 SW5       30.26F
CHASE CITY*    SUNNY     35  35 100 CALM      30.27S
CLARKSVILLE*   SUNNY     32  32 100 CALM      30.27S
SOUTH HILL*    CLEAR     37  34  87 CALM      30.33S
LAWRENCEVILLE* SUNNY     35  34  95 CALM      30.27S
EMPORIA*       CLEAR     32  32 100 CALM      30.30S
$$

VAZ088>098-270900-
SOUTHEAST VIRGINIA

CITY           SKY/WX    TMP DP  RH WIND       PRES   REMARKS
NORFOLK        PTCLDY    39  37  92 SW5       30.29F
VIRGINIA BEACH PTCLDY    36  32  85 CALM      30.29S
NORFOLK NAVAL  PTCLDY    40  35  83 CALM      30.30F
WEST POINT*    PTCLDY    33  31  94 CALM      30.29S
SALUDA*        FAIR      34  33  96 S3        30.27F
NEWPORT NEWS   PTCLDY    36  32  85 CALM      30.28F FOG
LANGLEY AFB    FOG       34  34 100 CALM      30.29S VSB 1
FORT EUSTIS    PTCLDY    35  35 100 E1        30.27F
WILLIAMSBURG*  PTCLDY    36  36 100 S3        30.29F
HR EXEC AP*    MOSUNNY   30  27  86 CALM      30.31S
FRANKLIN*      PTCLDY    32  32 100 CALM      30.29S
WAKEFIELD      PTCLDY    33  30  88 CALM      30.29S
$$

VAZ020-022-025-037-045-270900-
WEST CENTRAL AND SOUTHWEST VIRGINIA

CITY           SKY/WX    TMP DP  RH WIND       PRES   REMARKS
STAUNTON*      MOCLDY    32  27  80 CALM      30.25S
WAYNESBORO*    PTSUNNY   32  25  74 CALM      30.22F
HOT SPRINGS VA MOCLDY    44   6  20 W14       30.20R
LYNCHBURG      CLEAR     34  31  88 CALM      30.26R
DANVILLE       PTCLDY    33  30  88 CALM      30.27S
SOUTH BOSTON*  SUNNY     30  29  95 CALM      30.28S
MARTINSVILLE   PTCLDY    31  31 100 CALM      30.27F
ROANOKE        PTCLDY    35  28  75 CALM      30.28R
BLACKSBURG     MOCLDY    32  27  81 CALM      30.28R
DUBLIN*        MOCLDY    35  30  83 CALM      30.27R
MARION*        MOCLDY    36  26  66 CALM      30.27S
HILLSVILLE*    MOCLDY    40  27  59 SW6       30.26R
RICHLANDS*     CLOUDY    45  16  31 W9        30.25R
WISE*          CLOUDY    46  18  31 S6        30.24S
ABINGDON*      CLOUDY    44  28  53 CALM      30.25R
$$

MDZ021>025-VAZ099-100-270900-
SOUTHERN MARYLAND AND THE DELMARVA PENINSULA

CITY           SKY/WX    TMP DP  RH WIND       PRES   REMARKS
PATUXENT RIVER PTCLDY    32  30  92 CALM      30.25F
BAY BRIDGE APT   N/A     36  36 100 CALM      30.26S
LEONARDTOWN    PTCLDY    37  34  87 SW5       30.26F
DOVER          CLEAR     35  32  90 S6        30.22F
GEORGETOWN     CLEAR     37  34  89 SW7       30.25F
EASTON         PTCLDY    37  37 100 CALM      30.29F
CAMBRIDGE        N/A     36  34  93 S3        30.25F VSB 1/2
SALISBURY      CLEAR     35  31  85 S3        30.26F FOG
OCEAN CITY     CLEAR     37  35  92 W7        30.27R
WALLOPS ISLAND CLEAR     36  35  96 SW8       30.28S
ACCOMACK*      CLEAR     36  36 100 S5        30.28S FOG
$$

NCZ012>017-030>032-270900-
NORTH CENTRAL AND EASTERN NORTH CAROLINA

CITY           SKY/WX    TMP DP  RH WIND       PRES   REMARKS
ROANOKE RAPIDS SUNNY     32  32 100 W3        30.29S
RALEIGH        PTCLDY    35  32  88 CALM      30.29S
ELIZABETH CITY PTCLDY    39  35  86 CALM      30.30F
AHOSKIE*       CLEAR     32  31  97 CALM      30.30F FOG
EDENTON*         N/A     35  34  94 CALM      30.30F
CURRITUCK*     PTCLDY    37  36  95 CALM      30.31F
KILL DEVIL HLS PTCLDY    44  43  99 SW3       30.29F
MANTEO           N/A     37  37 100 CALM      30.31S FOG
CAPE HATTERAS  CLEAR     39  38  96 NW5       30.30S
TARBORO*       FOG       36  35  97 CALM      30.31S VSB 1
GOLDSBORO      CLEAR     34  34 100 E2        30.29S
WASHINGTON     CLEAR     36  34  94 CALM      30.30F
GREENVILLE     CLEAR     36  34  93 CALM      30.30F
NEW BERN       PTCLDY    36  32  85 CALM      30.32S
WILMINGTON     CLEAR     37  35  92 CALM      30.30F
$$

VAZ048-270900-
ELSEWHERE

CITY           SKY/WX    TMP DP  RH WIND       PRES   REMARKS
HARRISBURG PA  MOCLDY    29  27  92 N3        30.24S
BALTIMORE      PTCLDY    31  28  89 CALM      30.24S
ANNAPOLIS      PTCLDY    35  33  92 CALM      30.25S
ANDREWS AFB    FAIR      33  30  90 S5        30.24S
PHILADELPHIA   PTCLDY    34  30  85 SW5       30.26R
HENDERSON NC   CLEAR     37  34  90 CALM      30.28S
GREENSBORO     MOCLDY    38  32  79 S5        30.26F
ROCKY MOUNT    CLEAR     34  33  96 S3        30.29F
$$

VAZ100-270900-
MARINE

STATION/POSITION TIME  TEMP    WIND        PRES    WAVE   SWELL
                       AIR SEA DIR/SP/G            HT/PER HT/PER
                 (UTC) (F)     (DEG/KT/KT) (MB)    (FT/S) (FT/S)
CAPE MAY NJ      0800   42 46  250/  5/  6 1024.0F
LEWES DE         0800   38 44  240/  4/  6 1024.2F
15NM E FENWICK I 0800   45 45              1024.4R   2/12
OCEAN-CITY-INLET 0800   41 45  270/  7/  8 1024.5R
WACHAPREAGUE VA  0800   41 48  240/  3/  5 1025.6F
THOMAS POINT MD  0800   41 42  210/  5/  5 1025.2F
GOOSES REEF MD   0800   42     VRB  4/  6  1023.5R
COVE POINT MD    0800   42     210/  5/  6 1024.4S
SOLOMONS ISLAND  0800      43                N/A
BISHOPS HEAD MD  0800   43 44  190/  6/  8 1023.9F
PINEY POINT MD   0800          200/  4/  5   N/A
POTOMAC MD       0800   43     230/  6/  6 1024.0F
CAMBRIDGE MD     0800   39 42  190/  5/  8 1024.1F
LEWISETTA VA     0800   39 44  220/  6/  7 1024.6F
RAPPAHANNOCK LGT 0800          170/ 10/ 11 1025.5F
STINGRAY PT      0800   43     180/  6/  6 1025.4F
YORK RVR RNG VA  0800   44     210/  6/  7 1024.7F
YORKTOWN VA      0800   41 45  160/  3/  3 1025.1F
JAMESTOWN VA     0800   38      90/  2/  2   N/A
DOMINION TERM VA 0800   45     200/  3/  4 1025.6S
KIPTOPEKE VA     0800      50  200/  4/  6   N/A
CHES BAY BRIDGE  0800   45 46  180/  7/  8 1025.2R
CAPE HENRY VA    0800   44     200/  7/ 10 1024.3F
CHESAPEAKE LGHT  0700   47     230/ 10/ 10 1026.3R
WILLOUBY STN VA  0800   44     210/  4/  5 1026.0R
S CRANEY ISL VA  0800          180/  4/  5 1025.6R
CAPE HENRY BUOY  0800      48                N/A     2/12   2/12
1ST LANDING BUOY 0800   45     200/  6/  6 1025.2S
CAPE CHARLES BUO 0800      47                N/A     1/12   2/12
64NM E OF VA BCH 0800   52 52  240/  8/  8 1025.5R   2/14   2/14
DUCK PIER NC     0800   47 51  230/  5/  5 1025.4R
44100 DUCK FRF   0800      50                N/A     2/12   2/12
44056 DUCK FRF   0800      50                N/A     2/12   2/12
OREGON INLET NC  0800   48 53  260/  4/  5 1026.1F
HATTERAS NC      0800   49 55  330/  2/  2 1026.3F
DIAMOND SHLS NC  0800   56                 1025.9F   2/ 8
CAPE LOOKOUT NC  0700   53     340/  3/  3 1025.9S
$$



USA.gov is the U.S. government's official web portal to all federal, state and local government web resources and services.